"read_dt","SO2 (ppb)","flags","PMT voltage (V)","lamp voltage (V)","lamp intensity (Hz)","internal temp (C)","react chamber temp (C)","sample flow (l/min)","pres (mmHg)","SO2 bkg (ppb)","SO2 coefficient"
2016-06-24 00:00:00,2085E-3,5C000400,-0724,0828,12092,030.8,045.5,0.250,748.5,01.17,0.508
2016-06-24 00:01:00,2058E-3,5C000400,-0724,0828,12203,030.8,045.5,0.250,748.5,01.17,0.508
2016-06-24 00:02:00,2081E-3,5C000400,-0724,0828,12048,030.8,045.5,0.250,748.5,01.17,0.508
2016-06-24 00:03:00,1962E-3,5C000400,-0724,0828,11997,030.8,045.5,0.250,748.5,01.17,0.508
2016-06-24 00:04:00,2046E-3,5C000400,-0724,0828,12152,030.8,045.5,0.250,748.5,01.17,0.508
2016-06-24 00:05:00,2069E-3,5C000400,-0724,0828,12183,030.8,045.5,0.250,748.4,01.17,0.508
2016-06-24 00:06:00,2033E-3,5C000400,-0724,0829,12284,030.8,045.5,0.250,748.5,01.17,0.508
2016-06-24 00:07:00,1951E-3,5C000400,-0724,0828,12346,030.8,045.5,0.250,748.5,01.17,0.508
2016-06-24 00:08:00,1992E-3,5C000400,-0724,0827,12211,030.8,045.5,0.250,748.4,01.17,0.508
2016-06-24 00:09:00,2070E-3,5C000400,-0724,0828,12337,030.8,045.5,0.250,748.4,01.17,0.508
2016-06-24 00:10:00,1933E-3,5C000400,-0724,0829,12309,030.8,045.5,0.250,748.4,01.17,0.508
2016-06-24 00:11:00,2073E-3,5C000400,-0724,0828,12286,030.8,045.5,0.250,748.3,01.17,0.508
2016-06-24 00:12:00,2031E-3,5C000400,-0724,0828,12256,030.8,045.5,0.250,748.4,01.17,0.508
2016-06-24 00:13:00,2085E-3,5C000400,-0724,0828,12024,030.8,045.5,0.250,748.5,01.17,0.508
2016-06-24 00:14:00,2058E-3,5C000400,-0724,0828,12116,030.8,045.5,0.250,748.5,01.17,0.508
2016-06-24 00:15:00,1944E-3,5C000400,-0724,0828,12218,030.8,045.5,0.250,748.4,01.17,0.508
2016-06-24 00:16:00,2026E-3,5C000400,-0724,0828,12204,030.8,045.5,0.250,748.3,01.17,0.508
2016-06-24 00:17:00,2012E-3,5C000400,-0724,0828,11975,030.8,045.5,0.250,748.4,01.17,0.508
2016-06-24 00:18:00,2302E-3,5C000400,-0724,0829,12092,030.8,045.5,0.250,748.4,01.17,0.508
2016-06-24 00:19:00,2012E-3,5C000400,-0724,0828,12247,030.8,045.5,0.250,748.6,01.17,0.508
2016-06-24 00:20:00,2076E-3,5C000400,-0724,0828,12063,030.8,045.5,0.250,748.6,01.17,0.508
2016-06-24 00:21:00,2019E-3,5C000400,-0724,0828,12223,030.9,045.5,0.250,748.6,01.17,0.508
2016-06-24 00:22:00,2123E-3,5C000400,-0724,0828,12298,030.8,045.5,0.250,748.5,01.17,0.508
2016-06-24 00:23:00,2008E-3,5C000400,-0724,0827,12349,030.9,045.5,0.250,748.6,01.17,0.508
2016-06-24 00:24:00,2070E-3,5C000400,-0724,0827,12104,030.9,045.5,0.250,748.7,01.17,0.508
2016-06-24 00:25:00,2179E-3,5C000400,-0724,0828,12202,030.9,045.5,0.250,748.7,01.17,0.508
2016-06-24 00:26:00,2145E-3,5C000400,-0724,0828,12145,030.9,045.5,0.250,748.5,01.17,0.508
2016-06-24 00:27:00,1953E-3,5C000400,-0724,0828,12198,030.9,045.5,0.250,748.6,01.17,0.508
2016-06-24 00:28:00,1916E-3,5C000400,-0724,0828,12231,030.9,045.5,0.250,748.6,01.17,0.508
2016-06-24 00:29:00,2011E-3,5C000400,-0724,0828,12087,030.9,045.5,0.250,748.6,01.17,0.508
2016-06-24 00:30:00,2014E-3,5C000400,-0724,0827,12119,030.9,045.5,0.250,748.7,01.17,0.508
2016-06-24 00:31:00,2086E-3,5C000400,-0724,0827,12280,030.9,045.5,0.250,748.7,01.17,0.508
2016-06-24 00:32:00,2042E-3,5C000400,-0724,0828,12119,030.9,045.5,0.250,748.7,01.17,0.508
2016-06-24 00:33:00,2166E-3,5C000400,-0724,0828,12209,030.9,045.5,0.250,748.6,01.17,0.508
2016-06-24 00:34:00,2096E-3,5C000400,-0724,0828,12283,030.9,045.5,0.249,748.7,01.17,0.508
2016-06-24 00:35:00,2019E-3,5C000400,-0724,0828,12313,031.0,045.5,0.250,748.6,01.17,0.508
2016-06-24 00:36:00,2061E-3,5C000400,-0724,0828,12204,030.9,045.5,0.250,748.5,01.17,0.508
2016-06-24 00:37:00,1999E-3,5C000400,-0724,0828,12263,030.9,045.5,0.249,748.6,01.17,0.508
2016-06-24 00:38:00,1999E-3,5C000400,-0724,0829,12346,030.9,045.5,0.250,748.7,01.17,0.508
2016-06-24 00:39:00,1948E-3,5C000400,-0724,0828,12320,030.9,045.5,0.249,748.6,01.17,0.508
2016-06-24 00:40:00,2155E-3,5C000400,-0724,0829,12219,030.9,045.5,0.250,748.7,01.17,0.508
2016-06-24 00:41:00,1972E-3,5C000400,-0724,0829,12124,031.0,045.5,0.250,748.7,01.17,0.508
2016-06-24 00:42:00,1905E-3,5C000400,-0724,0828,12283,031.0,045.5,0.249,748.7,01.17,0.508
2016-06-24 00:43:00,2015E-3,5C000400,-0724,0828,12215,031.0,045.5,0.250,748.7,01.17,0.508
2016-06-24 00:44:00,2092E-3,5C000400,-0724,0827,12119,031.0,045.5,0.250,748.7,01.17,0.508
2016-06-24 00:45:00,2177E-3,5C000400,-0724,0828,12237,031.0,045.5,0.249,748.7,01.17,0.508
2016-06-24 00:46:00,2090E-3,5C000400,-0724,0828,12285,031.0,045.5,0.250,748.7,01.17,0.508
2016-06-24 00:47:00,2111E-3,5C000400,-0724,0827,12218,031.0,045.5,0.249,748.5,01.17,0.508
2016-06-24 00:48:00,2135E-3,5C000400,-0724,0829,12087,031.0,045.5,0.249,748.5,01.17,0.508
2016-06-24 00:49:00,2012E-3,5C000400,-0724,0828,12367,031.0,045.5,0.250,748.7,01.17,0.508
2016-06-24 00:50:00,1991E-3,5C000400,-0724,0828,12035,031.0,045.5,0.249,748.6,01.17,0.508
2016-06-24 00:51:00,1953E-3,5C000400,-0724,0828,12052,031.1,045.5,0.250,748.6,01.17,0.508
2016-06-24 00:52:00,2102E-3,5C000400,-0724,0827,12266,031.0,045.5,0.249,748.5,01.17,0.508
2016-06-24 00:53:00,2002E-3,5C000400,-0724,0828,12103,031.0,045.5,0.250,748.7,01.17,0.508
2016-06-24 00:54:00,1991E-3,5C000400,-0724,0828,12205,031.1,045.5,0.249,748.6,01.17,0.508
2016-06-24 00:55:00,2189E-3,5C000400,-0724,0829,12340,031.1,045.5,0.249,748.6,01.17,0.508
2016-06-24 00:56:00,2176E-3,5C000400,-0724,0829,12263,031.1,045.5,0.250,748.6,01.17,0.508
2016-06-24 00:57:00,2057E-3,5C000400,-0724,0829,12352,031.1,045.5,0.249,748.6,01.17,0.508
2016-06-24 00:58:00,2088E-3,5C000400,-0724,0828,12180,031.1,045.5,0.250,748.6,01.17,0.508
2016-06-24 00:59:00,1943E-3,5C000400,-0724,0829,12218,031.1,045.5,0.249,748.5,01.17,0.508
2016-06-24 01:00:00,2056E-3,5C000400,-0724,0829,12169,031.1,045.5,0.249,748.6,01.17,0.508
2016-06-24 01:01:00,2017E-3,5C000400,-0724,0828,12079,031.1,045.5,0.249,748.5,01.17,0.508
2016-06-24 01:02:00,2106E-3,5C000400,-0724,0828,12335,031.1,045.5,0.249,748.5,01.17,0.508
2016-06-24 01:03:00,2076E-3,5C000400,-0724,0828,12155,031.1,045.5,0.249,748.4,01.17,0.508
2016-06-24 01:04:00,1925E-3,5C000400,-0724,0828,12277,031.1,045.5,0.249,748.5,01.17,0.508
2016-06-24 01:05:00,2124E-3,5C000400,-0724,0828,12269,031.1,045.5,0.249,748.4,01.17,0.508
2016-06-24 01:06:00,2075E-3,5C000400,-0724,0829,12054,031.1,045.5,0.249,748.5,01.17,0.508
2016-06-24 01:07:00,2241E-3,5C000400,-0724,0829,12220,031.2,045.5,0.249,748.5,01.17,0.508
2016-06-24 01:08:00,1986E-3,5C000400,-0724,0829,12068,031.2,045.5,0.249,748.5,01.17,0.508
2016-06-24 01:09:00,2037E-3,5C000400,-0724,0829,12201,031.1,045.5,0.249,748.5,01.17,0.508
2016-06-24 01:10:00,1986E-3,5C000400,-0724,0829,12269,031.2,045.5,0.249,748.5,01.17,0.508
2016-06-24 01:11:00,2002E-3,5C000400,-0724,0828,12288,031.2,045.5,0.249,748.5,01.17,0.508
2016-06-24 01:12:00,2029E-3,5C000400,-0724,0829,12167,031.2,045.5,0.249,748.5,01.17,0.508
2016-06-24 01:13:00,2115E-3,5C000400,-0724,0829,12209,031.2,045.5,0.249,748.6,01.17,0.508
2016-06-24 01:14:00,2055E-3,5C000400,-0724,0829,12356,031.2,045.5,0.249,748.5,01.17,0.508
2016-06-24 01:15:00,2101E-3,5C000400,-0724,0829,12167,031.2,045.5,0.249,748.5,01.17,0.508
2016-06-24 01:16:00,2103E-3,5C000400,-0724,0828,12231,031.2,045.5,0.249,748.6,01.17,0.508
2016-06-24 01:17:00,2089E-3,5C000400,-0724,0829,12284,031.2,045.5,0.249,748.6,01.17,0.508
2016-06-24 01:18:00,2036E-3,5C000400,-0724,0828,12250,031.2,045.5,0.249,748.6,01.17,0.508
2016-06-24 01:19:00,2069E-3,5C000400,-0724,0827,12212,031.2,045.5,0.249,748.6,01.17,0.508
2016-06-24 01:20:00,2107E-3,5C000400,-0724,0828,12228,031.2,045.5,0.249,748.6,01.17,0.508
2016-06-24 01:21:00,1917E-3,5C000400,-0724,0829,12090,031.2,045.5,0.249,748.6,01.17,0.508
2016-06-24 01:22:00,2061E-3,5C000400,-0723,0828,12162,031.2,045.5,0.249,748.6,01.17,0.508
2016-06-24 01:23:00,2084E-3,5C000400,-0724,0828,12221,031.3,045.5,0.249,748.6,01.17,0.508
2016-06-24 01:24:00,1994E-3,5C000400,-0724,0829,12204,031.2,045.5,0.249,748.6,01.17,0.508
2016-06-24 01:25:00,2001E-3,5C000400,-0724,0828,12208,031.3,045.5,0.249,748.6,01.17,0.508
2016-06-24 01:26:00,2048E-3,5C000400,-0724,0828,12328,031.2,045.5,0.249,748.6,01.17,0.508
2016-06-24 01:27:00,1924E-3,5C000400,-0724,0827,12332,031.3,045.5,0.249,748.6,01.17,0.508
2016-06-24 01:28:00,1887E-3,5C000400,-0724,0828,12224,031.3,045.5,0.249,748.6,01.17,0.508
2016-06-24 01:29:00,2095E-3,5C000400,-0724,0829,12223,031.3,045.5,0.249,748.6,01.17,0.508
2016-06-24 01:30:00,1870E-3,5C000400,-0724,0828,12164,031.3,045.5,0.249,748.6,01.17,0.508
2016-06-24 01:31:00,2022E-3,5C000400,-0724,0828,12204,031.3,045.5,0.249,748.6,01.17,0.508
2016-06-24 01:32:00,2029E-3,5C000400,-0724,0828,12154,031.3,045.5,0.249,748.6,01.17,0.508
2016-06-24 01:33:00,2145E-3,5C000400,-0724,0828,12306,031.3,045.5,0.248,748.6,01.17,0.508
2016-06-24 01:34:00,2052E-3,5C000400,-0724,0828,12276,031.3,045.5,0.249,748.6,01.17,0.508
2016-06-24 01:35:00,1918E-3,5C000400,-0724,0829,12201,031.3,045.5,0.249,748.5,01.17,0.508
2016-06-24 01:36:00,1977E-3,5C000400,-0723,0829,12107,031.3,045.5,0.249,748.6,01.17,0.508
2016-06-24 01:37:00,2038E-3,5C000400,-0724,0827,12278,031.3,045.5,0.249,748.5,01.17,0.508
2016-06-24 01:38:00,2139E-3,5C000400,-0724,0828,12210,031.3,045.5,0.248,748.5,01.17,0.508
2016-06-24 01:39:00,1945E-3,5C000400,-0724,0828,12225,031.3,045.5,0.249,748.6,01.17,0.508
2016-06-24 01:40:00,2057E-3,5C000400,-0724,0828,12229,031.4,045.5,0.249,748.6,01.17,0.508
2016-06-24 01:41:00,1963E-3,5C000400,-0724,0828,12166,031.4,045.5,0.248,748.6,01.17,0.508
2016-06-24 01:42:00,2134E-3,5C000400,-0724,0828,12209,031.4,045.5,0.249,748.5,01.17,0.508
2016-06-24 01:43:00,2105E-3,5C000400,-0724,0828,12335,031.3,045.5,0.249,748.6,01.17,0.508
2016-06-24 01:44:00,1956E-3,5C000400,-0723,0828,12170,031.4,045.5,0.249,748.6,01.17,0.508
2016-06-24 01:45:00,1975E-3,5C000400,-0724,0829,12298,031.4,045.5,0.249,748.6,01.17,0.508
2016-06-24 01:46:00,2029E-3,5C000400,-0724,0829,12283,031.4,045.5,0.248,748.6,01.17,0.508
2016-06-24 01:47:00,2073E-3,5C000400,-0724,0829,12107,031.4,045.5,0.249,748.5,01.17,0.508
2016-06-24 01:48:00,2001E-3,5C000400,-0723,0829,12129,031.4,045.5,0.249,748.6,01.17,0.508
2016-06-24 01:49:00,2080E-3,5C000400,-0724,0829,12150,031.4,045.5,0.248,748.6,01.17,0.508
2016-06-24 01:50:00,1902E-3,5C000400,-0724,0828,11095,031.4,045.5,0.249,748.5,01.17,0.508
2016-06-24 01:51:00,2030E-3,5C000400,-0724,0829,12209,031.4,045.5,0.249,748.5,01.17,0.508
2016-06-24 01:52:00,2067E-3,5C000400,-0724,0828,12086,031.4,045.5,0.249,748.6,01.17,0.508
2016-06-24 01:53:00,2027E-3,5C000400,-0723,0829,12220,031.4,045.5,0.249,748.6,01.17,0.508
2016-06-24 01:54:00,2083E-3,5C000400,-0723,0829,12098,031.4,045.5,0.248,748.5,01.17,0.508
2016-06-24 01:55:00,2085E-3,5C000400,-0723,0829,12015,031.4,045.5,0.249,748.5,01.17,0.508
2016-06-24 01:56:00,2112E-3,5C000400,-0724,0829,12194,031.4,045.5,0.249,748.5,01.17,0.508
2016-06-24 01:57:00,2088E-3,5C000400,-0723,0828,12196,031.4,045.5,0.249,748.5,01.17,0.508
2016-06-24 01:58:00,2150E-3,5C000400,-0724,0829,12353,031.5,045.5,0.249,748.6,01.17,0.508
2016-06-24 01:59:00,2024E-3,5C000400,-0724,0828,12263,031.5,045.5,0.249,748.5,01.17,0.508
2016-06-24 02:00:00,1916E-3,5C000400,-0723,0829,12235,031.5,045.5,0.249,748.6,01.17,0.508
2016-06-24 02:01:00,1969E-3,5C000400,-0724,0828,12361,031.5,045.5,0.248,748.6,01.17,0.508
2016-06-24 02:02:00,1960E-3,5C000400,-0724,0829,12110,031.5,045.5,0.249,748.6,01.17,0.508
2016-06-24 02:03:00,2061E-3,5C000400,-0724,0828,12221,031.5,045.5,0.249,748.6,01.17,0.508
2016-06-24 02:04:00,2047E-3,5C000400,-0724,0829,12148,031.5,045.5,0.248,748.6,01.17,0.508
2016-06-24 02:05:00,2060E-3,5C000400,-0724,0829,12282,031.5,045.5,0.249,748.6,01.17,0.508
2016-06-24 02:06:00,2050E-3,5C000400,-0724,0828,12123,031.5,045.5,0.248,748.6,01.17,0.508
2016-06-24 02:07:00,2046E-3,5C000400,-0723,0828,12127,031.5,045.5,0.249,748.6,01.17,0.508
2016-06-24 02:08:00,2101E-3,5C000400,-0724,0828,12333,031.5,045.5,0.248,748.6,01.17,0.508
2016-06-24 02:09:00,2042E-3,5C000400,-0724,0827,12243,031.5,045.5,0.248,748.6,01.17,0.508
2016-06-24 02:10:00,2197E-3,5C000400,-0723,0828,12232,031.5,045.5,0.248,748.6,01.17,0.508
2016-06-24 02:11:00,2096E-3,5C000400,-0723,0829,12187,031.6,045.5,0.248,748.6,01.17,0.508
2016-06-24 02:12:00,2135E-3,5C000400,-0724,0827,12038,031.5,045.5,0.249,748.6,01.17,0.508
2016-06-24 02:13:00,2090E-3,5C000400,-0724,0827,12169,031.6,045.5,0.248,748.6,01.17,0.508
2016-06-24 02:14:00,2222E-3,5C000400,-0724,0828,12093,031.6,045.5,0.248,748.7,01.17,0.508
2016-06-24 02:15:00,2094E-3,5C000400,-0723,0828,12233,031.6,045.6,0.248,748.7,01.17,0.508
2016-06-24 02:16:00,2164E-3,5C000400,-0723,0828,12113,031.6,045.5,0.248,748.7,01.17,0.508
2016-06-24 02:17:00,1981E-3,5C000400,-0724,0830,12181,031.6,045.5,0.248,748.6,01.17,0.508
2016-06-24 02:18:00,1932E-3,5C000400,-0723,0828,12213,031.6,045.5,0.248,748.6,01.17,0.508
2016-06-24 02:19:00,1853E-3,5C000400,-0723,0829,12190,031.6,045.5,0.248,748.6,01.17,0.508
2016-06-24 02:20:00,2151E-3,5C000400,-0724,0829,12241,031.6,045.5,0.248,748.7,01.17,0.508
2016-06-24 02:21:00,2144E-3,5C000400,-0724,0828,12160,031.6,045.5,0.248,748.7,01.17,0.508
2016-06-24 02:22:00,1985E-3,5C000400,-0723,0829,12290,031.6,045.5,0.248,748.7,01.17,0.508
2016-06-24 02:23:00,1979E-3,5C000400,-0723,0828,12136,031.6,045.5,0.248,748.7,01.17,0.508
2016-06-24 02:24:00,2043E-3,5C000400,-0723,0828,12185,031.7,045.5,0.248,748.7,01.17,0.508
2016-06-24 02:25:00,2129E-3,5C000400,-0723,0828,12146,031.6,045.5,0.248,748.7,01.17,0.508
2016-06-24 02:26:00,2106E-3,5C000400,-0724,0828,12153,031.6,045.5,0.248,748.6,01.17,0.508
2016-06-24 02:27:00,2060E-3,5C000400,-0723,0829,12103,031.6,045.5,0.248,748.6,01.17,0.508
2016-06-24 02:28:00,1964E-3,5C000400,-0723,0828,12125,031.7,045.5,0.248,748.7,01.17,0.508
2016-06-24 02:29:00,1936E-3,5C000400,-0724,0828,12198,031.7,045.5,0.248,748.6,01.17,0.508
2016-06-24 02:30:00,2107E-3,5C000400,-0724,0829,12256,031.7,045.5,0.248,748.6,01.17,0.508
2016-06-24 02:31:00,2179E-3,5C000400,-0723,0828,12166,031.7,045.5,0.248,748.7,01.17,0.508
2016-06-24 02:32:00,1946E-3,5C000400,-0723,0829,12317,031.7,045.6,0.248,748.6,01.17,0.508
2016-06-24 02:33:00,2013E-3,5C000400,-0724,0828,12260,031.7,045.6,0.248,748.6,01.17,0.508
2016-06-24 02:34:00,2154E-3,5C000400,-0724,0828,12102,031.7,045.5,0.248,748.6,01.17,0.508
2016-06-24 02:35:00,2060E-3,5C000400,-0723,0828,12192,031.7,045.6,0.247,748.6,01.17,0.508
2016-06-24 02:36:00,2006E-3,5C000400,-0724,0828,12172,031.7,045.5,0.248,748.6,01.17,0.508
2016-06-24 02:37:00,2047E-3,5C000400,-0724,0828,12122,031.7,045.5,0.248,748.5,01.17,0.508
2016-06-24 02:38:00,1927E-3,5C000400,-0724,0829,12126,031.8,045.5,0.248,748.6,01.17,0.508
2016-06-24 02:39:00,2110E-3,5C000400,-0723,0829,12171,031.8,045.5,0.248,748.6,01.17,0.508
2016-06-24 02:40:00,2058E-3,5C000400,-0723,0828,12152,031.7,045.5,0.248,748.5,01.17,0.508
2016-06-24 02:41:00,2131E-3,5C000400,-0723,0829,12233,031.8,045.5,0.248,748.6,01.17,0.508
2016-06-24 02:42:00,1960E-3,5C000400,-0723,0829,12108,031.8,045.5,0.247,748.6,01.17,0.508
2016-06-24 02:43:00,2072E-3,5C000400,-0724,0830,12181,031.8,045.5,0.248,748.6,01.17,0.508
2016-06-24 02:44:00,2015E-3,5C000400,-0723,0829,12245,031.8,045.5,0.248,748.6,01.17,0.508
2016-06-24 02:45:00,2144E-3,5C000400,-0724,0829,12323,031.8,045.5,0.248,748.5,01.17,0.508
2016-06-24 02:46:00,2084E-3,5C000400,-0723,0829,12217,031.8,045.5,0.248,748.6,01.17,0.508
2016-06-24 02:47:00,2062E-3,5C000400,-0724,0829,12066,031.8,045.5,0.248,748.6,01.17,0.508
2016-06-24 02:48:00,1988E-3,5C000400,-0723,0829,12087,031.8,045.5,0.248,748.6,01.17,0.508
2016-06-24 02:49:00,1911E-3,5C000400,-0723,0828,12067,031.8,045.6,0.247,748.6,01.17,0.508
2016-06-24 02:50:00,2020E-3,5C000400,-0723,0829,12170,031.9,045.6,0.248,748.6,01.17,0.508
2016-06-24 02:51:00,2152E-3,5C000400,-0724,0829,12286,031.9,045.5,0.247,748.5,01.17,0.508
2016-06-24 02:52:00,2086E-3,5C000400,-0723,0828,12236,031.9,045.5,0.248,748.5,01.17,0.508
2016-06-24 02:53:00,2112E-3,5C000400,-0723,0829,12113,031.9,045.5,0.248,748.5,01.17,0.508
2016-06-24 02:54:00,1945E-3,5C000400,-0724,0828,12092,031.9,045.5,0.248,748.6,01.17,0.508
2016-06-24 02:55:00,2165E-3,5C000400,-0723,0828,12215,031.9,045.6,0.248,748.5,01.17,0.508
2016-06-24 02:56:00,2097E-3,5C000400,-0723,0828,12223,031.9,045.6,0.248,748.5,01.17,0.508
2016-06-24 02:57:00,1987E-3,5C000400,-0723,0828,12268,031.9,045.6,0.248,748.5,01.17,0.508
2016-06-24 02:58:00,2238E-3,5C000400,-0723,0829,11967,031.9,045.5,0.248,748.4,01.17,0.508
2016-06-24 02:59:00,1967E-3,5C000400,-0723,0829,12214,031.9,045.6,0.248,748.4,01.17,0.508
2016-06-24 03:00:00,2029E-3,5C000400,-0723,0828,12069,031.9,045.6,0.247,748.5,01.17,0.508
2016-06-24 03:01:00,2187E-3,5C000400,-0723,0829,12257,031.9,045.6,0.248,748.5,01.17,0.508
2016-06-24 03:02:00,2019E-3,5C000400,-0723,0829,12275,032.0,045.6,0.247,748.5,01.17,0.508
2016-06-24 03:03:00,2037E-3,5C000400,-0723,0828,12309,031.9,045.6,0.247,748.5,01.17,0.508
2016-06-24 03:04:00,2002E-3,5C000400,-0723,0828,11093,032.0,045.6,0.247,748.5,01.17,0.508
2016-06-24 03:05:00,2050E-3,5C000400,-0723,0829,12163,032.0,045.5,0.247,748.5,01.17,0.508
2016-06-24 03:06:00,2052E-3,5C000400,-0723,0829,12172,032.0,045.6,0.247,748.5,01.17,0.508
2016-06-24 03:07:00,2052E-3,5C000400,-0723,0829,12278,032.0,045.6,0.247,748.5,01.17,0.508
2016-06-24 03:08:00,1926E-3,5C000400,-0723,0829,12289,032.0,045.6,0.248,748.5,01.17,0.508
2016-06-24 03:09:00,2123E-3,5C000400,-0723,0829,12263,032.0,045.6,0.247,748.5,01.17,0.508
2016-06-24 03:10:00,1924E-3,5C000400,-0723,0830,12152,032.0,045.5,0.247,748.6,01.17,0.508
2016-06-24 03:11:00,2185E-3,5C000400,-0723,0828,12046,032.1,045.6,0.247,748.6,01.17,0.508
2016-06-24 03:12:00,2162E-3,5C000400,-0723,0828,12101,032.1,045.6,0.247,748.6,01.17,0.508
2016-06-24 03:13:00,1999E-3,5C000400,-0723,0829,12116,032.1,045.6,0.247,748.6,01.17,0.508
2016-06-24 03:14:00,2091E-3,5C000400,-0723,0829,12143,032.1,045.6,0.247,748.6,01.17,0.508
2016-06-24 03:15:00,2095E-3,5C000400,-0723,0829,12162,032.1,045.6,0.247,748.5,01.17,0.508
2016-06-24 03:16:00,2072E-3,5C000400,-0723,0828,12221,032.1,045.6,0.247,748.6,01.17,0.508
2016-06-24 03:17:00,2183E-3,5C000400,-0723,0829,12107,032.1,045.5,0.247,748.6,01.17,0.508
2016-06-24 03:18:00,2025E-3,5C000400,-0723,0829,12124,032.1,045.6,0.247,748.6,01.17,0.508
2016-06-24 03:19:00,2130E-3,5C000400,-0723,0828,12271,032.1,045.6,0.247,748.6,01.17,0.508
2016-06-24 03:20:00,2152E-3,5C000400,-0723,0829,12262,032.1,045.6,0.246,748.6,01.17,0.508
2016-06-24 03:21:00,2025E-3,5C000400,-0723,0829,12075,032.1,045.6,0.247,748.5,01.17,0.508
2016-06-24 03:22:00,1964E-3,5C000400,-0723,0829,12113,032.1,045.6,0.247,748.5,01.17,0.508
2016-06-24 03:23:00,2027E-3,5C000400,-0723,0828,12247,032.1,045.6,0.247,748.6,01.17,0.508
2016-06-24 03:24:00,2155E-3,5C000400,-0723,0830,12218,032.2,045.6,0.247,748.6,01.17,0.508
2016-06-24 03:25:00,2052E-3,5C000400,-0723,0828,12150,032.2,045.6,0.247,748.6,01.17,0.508
2016-06-24 03:26:00,2129E-3,5C000400,-0723,0829,12083,032.2,045.6,0.247,748.5,01.17,0.508
2016-06-24 03:27:00,2201E-3,5C000400,-0723,0829,12216,032.2,045.6,0.247,748.5,01.17,0.508
2016-06-24 03:28:00,2062E-3,5C000400,-0723,0828,12249,032.2,045.6,0.247,748.5,01.17,0.508
2016-06-24 03:29:00,1981E-3,5C000400,-0723,0829,12201,032.2,045.6,0.246,748.5,01.17,0.508
2016-06-24 03:30:00,1990E-3,5C000400,-0723,0829,12295,032.2,045.6,0.247,748.4,01.17,0.508
2016-06-24 03:31:00,2233E-3,5C000400,-0723,0829,12210,032.2,045.6,0.246,748.4,01.17,0.508
2016-06-24 03:32:00,2139E-3,5C000400,-0723,0828,12070,032.2,045.6,0.247,748.5,01.17,0.508
2016-06-24 03:33:00,2050E-3,5C000400,-0723,0828,12222,032.2,045.6,0.247,748.5,01.17,0.508
2016-06-24 03:34:00,2077E-3,5C000400,-0723,0828,12220,032.2,045.6,0.247,748.5,01.17,0.508
2016-06-24 03:35:00,2006E-3,5C000400,-0723,0828,12262,032.3,045.6,0.247,748.4,01.17,0.508
2016-06-24 03:36:00,2151E-3,5C000400,-0723,0829,12227,032.3,045.6,0.247,748.5,01.17,0.508
2016-06-24 03:37:00,2152E-3,5C000400,-0723,0828,12249,032.3,045.6,0.247,748.5,01.17,0.508
2016-06-24 03:38:00,2197E-3,5C000400,-0723,0828,12160,032.3,045.6,0.247,748.4,01.17,0.508
2016-06-24 03:39:00,2118E-3,5C000400,-0723,0828,12109,032.3,045.6,0.247,748.5,01.17,0.508
2016-06-24 03:40:00,2004E-3,5C000400,-0723,0829,12146,032.3,045.6,0.246,748.5,01.17,0.508
2016-06-24 03:41:00,2050E-3,5C000400,-0723,0829,12207,032.3,045.6,0.247,748.5,01.17,0.508
2016-06-24 03:42:00,2166E-3,5C000400,-0723,0828,12082,032.3,045.6,0.246,748.4,01.17,0.508
2016-06-24 03:43:00,2064E-3,5C000400,-0723,0829,12169,032.3,045.6,0.247,748.5,01.17,0.508
2016-06-24 03:44:00,2026E-3,5C000400,-0723,0829,12247,032.4,045.5,0.246,748.5,01.17,0.508
2016-06-24 03:45:00,2107E-3,5C000400,-0723,0828,12304,032.3,045.6,0.247,748.5,01.17,0.508
2016-06-24 03:46:00,2126E-3,5C000400,-0723,0830,12201,032.4,045.6,0.246,748.6,01.17,0.508
2016-06-24 03:47:00,1999E-3,5C000400,-0723,0829,12119,032.4,045.6,0.247,748.5,01.17,0.508
2016-06-24 03:48:00,2149E-3,5C000400,-0723,0829,12110,032.4,045.6,0.246,748.5,01.17,0.508
2016-06-24 03:49:00,2099E-3,5C000400,-0723,0828,12242,032.4,045.6,0.247,748.5,01.17,0.508
2016-06-24 03:50:00,2083E-3,5C000400,-0723,0829,12254,032.4,045.6,0.246,748.5,01.17,0.508
2016-06-24 03:51:00,2163E-3,5C000400,-0723,0828,12215,032.4,045.6,0.247,748.5,01.17,0.508
2016-06-24 03:52:00,2258E-3,5C000400,-0723,0830,12330,032.4,045.6,0.246,748.5,01.17,0.508
2016-06-24 03:53:00,1964E-3,5C000400,-0723,0829,12071,032.4,045.6,0.247,748.6,01.17,0.508
2016-06-24 03:54:00,2112E-3,5C000400,-0723,0829,12107,032.4,045.6,0.246,748.5,01.17,0.508
2016-06-24 03:55:00,1945E-3,5C000400,-0723,0828,12187,032.5,045.6,0.247,748.5,01.17,0.508
2016-06-24 03:56:00,2043E-3,5C000400,-0723,0829,12305,032.5,045.6,0.246,748.5,01.17,0.508
2016-06-24 03:57:00,2036E-3,5C000400,-0723,0829,12250,032.4,045.6,0.247,748.5,01.17,0.508
2016-06-24 03:58:00,2162E-3,5C000400,-0723,0830,12097,032.5,045.6,0.246,748.5,01.17,0.508
2016-06-24 03:59:00,2051E-3,5C000400,-0723,0830,12271,032.5,045.6,0.247,748.5,01.17,0.508
2016-06-24 04:00:00,1899E-3,5C000400,-0723,0830,12229,032.5,045.6,0.246,748.6,01.17,0.508
2016-06-24 04:01:00,1880E-3,5C000400,-0723,0829,12207,032.5,045.6,0.246,748.5,01.17,0.508
2016-06-24 04:02:00,1956E-3,5C000400,-0723,0830,12176,032.5,045.6,0.246,748.5,01.17,0.508
2016-06-24 04:03:00,2023E-3,5C000400,-0723,0829,12015,032.5,045.6,0.246,748.6,01.17,0.508
2016-06-24 04:04:00,2105E-3,5C000400,-0723,0830,12272,032.5,045.6,0.246,748.6,01.17,0.508
2016-06-24 04:05:00,2084E-3,5C000400,-0723,0829,12194,032.5,045.6,0.246,748.6,01.17,0.508
2016-06-24 04:06:00,2170E-3,5C000400,-0723,0828,12061,032.5,045.6,0.246,748.6,01.17,0.508
2016-06-24 04:07:00,2047E-3,5C000400,-0723,0829,12276,032.6,045.6,0.246,748.6,01.17,0.508
2016-06-24 04:08:00,2058E-3,5C000400,-0723,0829,12189,032.6,045.6,0.246,748.6,01.17,0.508
2016-06-24 04:09:00,2091E-3,5C000400,-0723,0829,12285,032.6,045.6,0.246,748.6,01.17,0.508
2016-06-24 04:10:00,1986E-3,5C000400,-0723,0830,12173,032.6,045.6,0.246,748.6,01.17,0.508
2016-06-24 04:11:00,2017E-3,5C000400,-0723,0829,11087,032.6,045.6,0.246,748.7,01.17,0.508
2016-06-24 04:12:00,1949E-3,5C000400,-0723,0828,12124,032.6,045.6,0.246,748.7,01.17,0.508
2016-06-24 04:13:00,2217E-3,5C000400,-0723,0829,12199,032.6,045.6,0.246,748.7,01.17,0.508
2016-06-24 04:14:00,2160E-3,5C000400,-0723,0829,12194,032.7,045.6,0.246,748.7,01.17,0.508
2016-06-24 04:15:00,2234E-3,5C000400,-0723,0830,12288,032.6,045.6,0.246,748.8,01.17,0.508
2016-06-24 04:16:00,2044E-3,5C000400,-0723,0829,12322,032.6,045.6,0.246,748.8,01.17,0.508
2016-06-24 04:17:00,1921E-3,5C000400,-0723,0829,12231,032.7,045.6,0.246,748.8,01.17,0.508
2016-06-24 04:18:00,2028E-3,5C000400,-0723,0829,12215,032.7,045.6,0.246,748.8,01.17,0.508
2016-06-24 04:19:00,2151E-3,5C000400,-0723,0829,12056,032.7,045.6,0.246,748.7,01.17,0.508
2016-06-24 04:20:00,2108E-3,5C000400,-0723,0830,12164,032.7,045.6,0.246,748.7,01.17,0.508